This demonstration page uses our WeatherBlox Daily Observations layout. Learn more.

Left ArrowRight Arrow

Hourly Observations for December 15, 2021

Temp ( °F °C ) Dew Point ( °F °C ) Humidity (%) Winds ( mph kmh ) Pressure ( in mb ) Visibility ( mi km ) Precip ( " mm )
12:51 am 00:51 Clear 62 16.7 44 6.7 52 52 S 24 39 29.79 1009 10 16 0.00 0.00
1:51 am 01:51 Clear 51 10.6 44 6.7 77 77 WNW 7 11 29.82 1010 10 16 0.00 0.00
2:51 am 02:51 Clear 58 14.4 38 3.3 48 48 NW 13 20 29.83 1010 10 16 0.00 0.00
3:51 am 03:51 Mostly Cloudy 56 13.3 41 5 57 57 NW 22 35 29.87 1011 10 16 0.00 0.00
4:51 am 04:51 Mostly Cloudy 45 7.2 39 3.9 80 80 NW 31 50 29.98 1015 10 16 0.00 0.00
5:51 am 05:51 Partly Cloudy 41 5 35 1.7 79 79 NW 24 39 30.02 1017 10 16 0.00 0.00
6:51 am 06:51 Mostly Cloudy 42 5.6 34 1.1 73 73 WNW 17 28 30.05 1018 10 16 0.00 0.00
7:51 am 07:51 Cloudy 42 5.6 32 0 68 68 WNW 9 15 30.10 1019 10 16 0.00 0.00
8:51 am 08:51 Cloudy 44 6.7 32 0 63 63 WNW 12 19 30.12 1020 10 16 0.00 0.00
9:51 am 09:51 Cloudy 48 8.9 32 0 54 54 W 9 15 30.11 1020 10 16 0.00 0.00
10:51 am 10:51 Sunny 51 10.6 31 -0.6 46 46 W 9 15 30.09 1019 10 16 0.00 0.00
11:51 am 11:51 Sunny 53 11.7 28 -2.2 38 38 WNW 13 20 30.05 1018 10 16 0.00 0.00
12:51 pm 12:51 Sunny 55 12.8 30 -1.1 38 38 W 10 17 30.01 1016 10 16 0.00 0.00
1:51 pm 13:51 Sunny 56 13.3 34 1.1 44 44 WNW 15 24 30.01 1016 10 16 0.00 0.00
2:51 pm 14:51 Partly Cloudy 56 13.3 36 2.2 47 47 W 14 22 29.98 1015 10 16 0.00 0.00
3:51 pm 15:51 Sunny 56 13.3 36 2.2 47 47 WNW 16 26 29.98 1015 10 16 0.00 0.00
4:51 pm 16:51 Sunny 54 12.2 33 0.6 45 45 WNW 14 22 30.01 1016 10 16 0.00 0.00
5:51 pm 17:51 Clear 50 10 30 -1.1 46 46 WNW 8 13 30.04 1017 10 16 0.00 0.00
6:51 pm 18:51 Clear 46 7.8 28 -2.2 50 50 WNW 7 11 30.06 1018 10 16 0.00 0.00
7:51 pm 19:51 Clear 42 5.6 28 -2.2 58 58 WNW 6 9 30.09 1019 10 16 0.00 0.00
8:51 pm 20:51 Clear 39 3.9 28 -2.2 65 65 Calm 30.08 1019 10 16 0.00 0.00
9:51 pm 21:51 Clear 37 2.8 27 -2.8 67 67 N 5 7 30.10 1019 10 16 0.00 0.00
10:51 pm 22:51 Clear 37 2.8 27 -2.8 67 67 N 5 7 30.09 1019 10 16 0.00 0.00
11:51 pm 23:51 Clear 35 1.7 27 -2.8 72 72 NNE 5 7 30.09 1019 10 16 0.00 0.00

Powered by AerisWeather